Time,TemperatureF,DewpointF,PressureIn,WindDirection,WindDirectionDegrees,WindSpeedMPH,WindSpeedGustMPH,Humidity,HourlyPrecipIn,Conditions,Clouds,dailyrainin,SoftwareType,DateUTC
2013-08-31 00:01:00,78.6,69.2,29.87,SW,222,0.0,0.0,73,0.00,CLR,,0.00,WeatherDisplay:10.37,2013-08-31 04:01:00,
2013-08-31 00:02:00,78.6,69.2,29.87,West,267,0.0,0.0,73,0.00,CLR,,0.00,WeatherDisplay:10.37,2013-08-31 04:02:00,
2013-08-31 00:07:00,78.4,69.5,29.87,WSW,245,0.0,0.0,74,0.00,CLR,,0.00,WeatherDisplay:10.37,2013-08-31 04:07:00,
2013-08-31 00:12:00,78.4,69.5,29.87,West,267,0.0,0.0,74,0.00,CLR,,0.00,WeatherDisplay:10.37,2013-08-31 04:12:00,
2013-08-31 00:17:00,78.4,69.1,29.86,West,267,0.0,0.0,73,0.00,CLR,,0.00,WeatherDisplay:10.37,2013-08-31 04:17:00,
2013-08-31 00:22:00,78.1,69.1,29.87,WSW,245,0.0,0.0,74,0.00,CLR,,0.00,WeatherDisplay:10.37,2013-08-31 04:22:00,
2013-08-31 00:27:00,78.1,69.1,29.86,WSW,245,0.0,0.0,74,0.00,CLR,,0.00,WeatherDisplay:10.37,2013-08-31 04:27:00,
2013-08-31 00:32:00,78.1,69.5,29.87,WSW,245,0.0,0.0,75,0.00,CLR,,0.00,WeatherDisplay:10.37,2013-08-31 04:32:00,
2013-08-31 00:37:00,78.1,69.5,29.87,WNW,289,0.0,0.0,75,0.00,CLR,,0.00,WeatherDisplay:10.37,2013-08-31 04:37:00,
2013-08-31 00:42:00,77.9,69.3,29.86,WSW,245,0.0,0.0,75,0.00,CLR,,0.00,WeatherDisplay:10.37,2013-08-31 04:42:00,
2013-08-31 00:47:00,78.1,69.1,29.87,WNW,289,0.0,0.0,74,0.00,CLR,,0.00,WeatherDisplay:10.37,2013-08-31 04:47:00,
2013-08-31 00:52:00,77.9,69.3,29.86,WSW,245,0.0,0.0,75,0.00,CLR,,0.00,WeatherDisplay:10.37,2013-08-31 04:52:00,
2013-08-31 00:57:00,77.9,69.3,29.87,West,267,0.0,0.0,75,0.00,CLR,,0.00,WeatherDisplay:10.37,2013-08-31 04:57:00,
2013-08-31 01:02:00,77.7,69.2,29.87,WSW,245,0.0,0.0,75,0.00,CLR,,0.00,WeatherDisplay:10.37,2013-08-31 05:02:00,
2013-08-31 01:07:00,77.7,69.5,29.87,West,267,0.0,0.0,76,0.00,CLR,,0.00,WeatherDisplay:10.37,2013-08-31 05:07:00,
2013-08-31 01:12:00,77.7,69.5,29.87,SW,222,0.0,0.0,76,0.00,CLR,,0.00,WeatherDisplay:10.37,2013-08-31 05:12:00,
2013-08-31 01:17:00,77.7,69.5,29.87,WSW,245,0.0,0.0,76,0.00,CLR,,0.00,WeatherDisplay:10.37,2013-08-31 05:17:00,
2013-08-31 01:22:00,77.5,69.4,29.86,WNW,289,0.0,0.0,76,0.00,CLR,,0.00,WeatherDisplay:10.37,2013-08-31 05:22:00,
2013-08-31 01:27:00,77.5,69.4,29.87,West,267,0.0,0.0,76,0.00,CLR,,0.00,WeatherDisplay:10.37,2013-08-31 05:27:00,
2013-08-31 01:32:00,77.5,69.8,29.87,WNW,289,0.0,0.0,77,0.00,CLR,,0.00,WeatherDisplay:10.37,2013-08-31 05:32:00,
2013-08-31 01:37:00,77.5,69.8,29.88,NW,312,0.0,0.0,77,0.00,CLR,,0.00,WeatherDisplay:10.37,2013-08-31 05:37:00,
2013-08-31 01:42:00,77.5,69.8,29.88,West,267,0.0,0.0,77,0.00,CLR,,0.00,WeatherDisplay:10.37,2013-08-31 05:42:00,
2013-08-31 01:47:00,77.5,69.8,29.88,West,267,0.0,0.0,77,0.00,CLR,,0.00,WeatherDisplay:10.37,2013-08-31 05:47:00,
2013-08-31 01:52:00,77.4,69.6,29.88,West,267,0.0,0.0,77,0.00,CLR,,0.00,WeatherDisplay:10.37,2013-08-31 05:52:00,
2013-08-31 01:57:00,77.2,69.4,29.88,West,267,0.0,0.0,77,0.00,CLR,,0.00,WeatherDisplay:10.37,2013-08-31 05:57:00,
2013-08-31 02:02:00,77.2,69.4,29.88,West,267,0.0,0.0,77,0.00,CLR,,0.00,WeatherDisplay:10.37,2013-08-31 06:02:00,
2013-08-31 02:07:00,77.0,69.2,29.88,WSW,245,0.0,0.0,77,0.00,CLR,,0.00,WeatherDisplay:10.37,2013-08-31 06:07:00,
2013-08-31 02:12:00,76.8,69.1,29.87,West,267,0.0,0.0,77,0.00,CLR,,0.00,WeatherDisplay:10.37,2013-08-31 06:12:00,
2013-08-31 02:17:00,76.8,69.1,29.87,WSW,245,0.0,0.0,77,0.00,CLR,,0.00,WeatherDisplay:10.37,2013-08-31 06:17:00,
2013-08-31 02:22:00,76.8,69.1,29.87,SW,222,0.0,0.0,77,0.00,CLR,,0.00,WeatherDisplay:10.37,2013-08-31 06:22:00,
2013-08-31 02:27:00,76.6,68.9,29.87,WSW,245,0.0,0.0,77,0.00,CLR,,0.00,WeatherDisplay:10.37,2013-08-31 06:27:00,
2013-08-31 02:32:00,76.3,68.5,29.88,SW,222,0.0,0.0,77,0.00,CLR,,0.00,WeatherDisplay:10.37,2013-08-31 06:32:00,
2013-08-31 02:37:00,76.3,68.2,29.88,SW,222,0.0,0.0,76,0.00,CLR,,0.00,WeatherDisplay:10.37,2013-08-31 06:37:00,
2013-08-31 02:42:00,75.9,67.8,29.88,SSW,199,0.0,0.0,76,0.00,CLR,,0.00,WeatherDisplay:10.37,2013-08-31 06:42:00,
2013-08-31 02:47:00,75.7,67.6,29.87,SSW,199,0.0,0.0,76,0.00,CLR,,0.00,WeatherDisplay:10.37,2013-08-31 06:47:00,
2013-08-31 02:52:00,75.7,67.6,29.87,SW,222,0.0,0.0,76,0.00,CLR,,0.00,WeatherDisplay:10.37,2013-08-31 06:52:00,
2013-08-31 02:57:00,75.7,67.6,29.87,South,177,0.0,0.0,76,0.00,CLR,,0.00,WeatherDisplay:10.37,2013-08-31 06:57:00,
2013-08-31 03:02:00,75.7,67.6,29.87,SSW,199,0.0,0.0,76,0.00,CLR,,0.00,WeatherDisplay:10.37,2013-08-31 07:02:00,
2013-08-31 03:07:00,75.7,67.6,29.87,South,177,0.0,0.0,76,0.00,CLR,,0.00,WeatherDisplay:10.37,2013-08-31 07:07:00,
2013-08-31 03:12:00,74.8,66.8,29.87,SW,222,0.0,0.0,76,0.00,SCT,,0.00,WeatherDisplay:10.37,2013-08-31 07:12:00,
2013-08-31 03:17:00,74.7,67.0,29.87,WSW,245,0.0,0.0,77,0.00,SCT,,0.00,WeatherDisplay:10.37,2013-08-31 07:17:00,
2013-08-31 03:22:00,74.5,67.2,29.87,SW,222,0.0,0.0,78,0.00,SCT,,0.00,WeatherDisplay:10.37,2013-08-31 07:22:00,
2013-08-31 03:27:00,74.5,67.2,29.87,SSW,199,0.0,0.0,78,0.00,SCT,,0.00,WeatherDisplay:10.37,2013-08-31 07:27:00,
2013-08-31 03:32:00,74.5,67.2,29.87,South,177,0.0,0.0,78,0.00,SCT,,0.00,WeatherDisplay:10.37,2013-08-31 07:32:00,
2013-08-31 03:37:00,74.5,66.8,29.87,SW,222,0.0,0.0,77,0.00,SCT,,0.00,WeatherDisplay:10.37,2013-08-31 07:37:00,
2013-08-31 03:42:00,74.5,66.8,29.87,WSW,245,0.0,0.0,77,0.00,SCT,,0.00,WeatherDisplay:10.37,2013-08-31 07:42:00,
2013-08-31 03:47:00,74.5,66.8,29.87,SW,222,0.0,0.0,77,0.00,SCT,,0.00,WeatherDisplay:10.37,2013-08-31 07:47:00,
2013-08-31 03:52:00,73.9,66.6,29.87,SW,222,0.0,0.0,78,0.00,SCT,,0.00,WeatherDisplay:10.37,2013-08-31 07:52:00,
2013-08-31 03:57:00,73.9,66.6,29.86,SW,222,0.0,0.0,78,0.00,SCT,,0.00,WeatherDisplay:10.37,2013-08-31 07:57:00,
2013-08-31 04:02:00,73.9,66.6,29.86,South,177,0.0,0.0,78,0.00,SCT,,0.00,WeatherDisplay:10.37,2013-08-31 08:02:00,
2013-08-31 04:07:00,73.9,66.6,29.86,SW,222,0.0,0.0,78,0.00,SCT,,0.00,WeatherDisplay:10.37,2013-08-31 08:07:00,
2013-08-31 04:12:00,73.8,66.5,29.86,South,177,0.0,0.0,78,0.00,BKN,,0.00,WeatherDisplay:10.37,2013-08-31 08:12:00,
2013-08-31 04:17:00,73.6,66.3,29.86,SSW,199,0.0,0.0,78,0.00,BKN,,0.00,WeatherDisplay:10.37,2013-08-31 08:17:00,
2013-08-31 04:22:00,73.6,66.3,29.86,SW,222,0.0,0.0,78,0.00,BKN,,0.00,WeatherDisplay:10.37,2013-08-31 08:22:00,
2013-08-31 04:27:00,73.6,66.3,29.86,SSW,199,0.0,0.0,78,0.00,BKN,,0.00,WeatherDisplay:10.37,2013-08-31 08:27:00,
2013-08-31 04:32:00,73.4,66.1,29.86,South,177,0.0,0.0,78,0.00,BKN,,0.00,WeatherDisplay:10.37,2013-08-31 08:32:00,
2013-08-31 04:37:00,73.4,66.1,29.86,WSW,245,0.0,0.0,78,0.00,BKN,,0.00,WeatherDisplay:10.37,2013-08-31 08:37:00,
2013-08-31 04:42:00,73.2,65.9,29.86,SSW,199,0.0,0.0,78,0.00,BKN,,0.00,WeatherDisplay:10.37,2013-08-31 08:42:00,
2013-08-31 04:47:00,73.2,65.9,29.86,South,177,0.0,0.0,78,0.00,BKN,,0.00,WeatherDisplay:10.37,2013-08-31 08:47:00,
2013-08-31 04:52:00,73.2,66.3,29.86,SW,222,0.0,0.0,79,0.00,BKN,,0.00,WeatherDisplay:10.37,2013-08-31 08:52:00,
2013-08-31 04:57:00,73.2,66.3,29.85,WSW,245,0.0,0.0,79,0.00,BKN,,0.00,WeatherDisplay:10.37,2013-08-31 08:57:00,
2013-08-31 05:02:00,73.2,66.7,29.85,WSW,245,0.0,0.0,80,0.00,BKN,,0.00,WeatherDisplay:10.37,2013-08-31 09:02:00,
2013-08-31 05:07:00,73.2,67.0,29.85,WSW,245,0.0,0.0,81,0.00,BKN,,0.00,WeatherDisplay:10.37,2013-08-31 09:07:00,
2013-08-31 05:12:00,73.2,67.0,29.85,South,177,0.0,0.0,81,0.00,CLR,,0.00,WeatherDisplay:10.37,2013-08-31 09:12:00,
2013-08-31 05:17:00,73.2,66.7,29.85,WSW,245,0.0,0.0,80,0.00,CLR,,0.00,WeatherDisplay:10.37,2013-08-31 09:17:00,
2013-08-31 05:22:00,73.0,66.1,29.85,SW,222,0.0,0.0,79,0.00,CLR,,0.00,WeatherDisplay:10.37,2013-08-31 09:22:00,
2013-08-31 05:27:00,73.0,66.5,29.85,South,177,0.0,0.0,80,0.00,CLR,,0.00,WeatherDisplay:10.37,2013-08-31 09:27:00,
2013-08-31 05:32:00,73.0,66.5,29.85,SSW,199,0.0,0.0,80,0.00,CLR,,0.00,WeatherDisplay:10.37,2013-08-31 09:32:00,
2013-08-31 05:37:00,73.0,66.5,29.86,WSW,245,0.0,0.0,80,0.00,CLR,,0.00,WeatherDisplay:10.37,2013-08-31 09:37:00,
2013-08-31 05:42:00,73.0,66.5,29.86,SSE,155,0.0,0.0,80,0.00,CLR,,0.00,WeatherDisplay:10.37,2013-08-31 09:42:00,
2013-08-31 05:47:00,73.0,66.5,29.86,WSW,245,0.0,0.0,80,0.00,CLR,,0.00,WeatherDisplay:10.37,2013-08-31 09:47:00,
2013-08-31 05:52:00,72.9,66.3,29.87,SSW,199,0.0,0.0,80,0.00,CLR,,0.00,WeatherDisplay:10.37,2013-08-31 09:52:00,
2013-08-31 05:57:00,72.9,66.3,29.87,South,177,0.0,0.0,80,0.00,CLR,,0.00,WeatherDisplay:10.37,2013-08-31 09:57:00,
2013-08-31 06:02:00,72.7,65.8,29.87,SW,222,0.0,0.0,79,0.00,CLR,,0.00,WeatherDisplay:10.37,2013-08-31 10:02:00,
2013-08-31 06:07:00,72.7,66.2,29.87,WSW,245,0.0,0.0,80,0.00,CLR,,0.00,WeatherDisplay:10.37,2013-08-31 10:07:00,
2013-08-31 06:12:00,72.7,65.8,29.87,SW,222,0.0,0.0,79,0.00,CLR,,0.00,WeatherDisplay:10.37,2013-08-31 10:12:00,
2013-08-31 06:17:00,72.5,65.6,29.87,SW,222,0.0,0.0,79,0.00,CLR,,0.00,WeatherDisplay:10.37,2013-08-31 10:17:00,
2013-08-31 06:22:00,72.5,65.6,29.87,SW,222,0.0,0.0,79,0.00,CLR,,0.00,WeatherDisplay:10.37,2013-08-31 10:22:00,
2013-08-31 06:27:00,72.7,65.8,29.87,SW,222,0.0,0.0,79,0.00,CLR,,0.00,WeatherDisplay:10.37,2013-08-31 10:27:00,
2013-08-31 06:32:00,72.7,65.8,29.87,SSW,199,0.0,0.0,79,0.00,CLR,,0.00,WeatherDisplay:10.37,2013-08-31 10:32:00,
2013-08-31 06:37:00,72.7,65.8,29.87,WSW,245,0.0,0.0,79,0.00,CLR,,0.00,WeatherDisplay:10.37,2013-08-31 10:37:00,
2013-08-31 06:42:00,72.7,65.8,29.87,SW,222,0.0,0.0,79,0.00,CLR,,0.00,WeatherDisplay:10.37,2013-08-31 10:42:00,
2013-08-31 06:47:00,72.7,65.8,29.88,SSW,199,0.0,0.0,79,0.00,CLR,,0.00,WeatherDisplay:10.37,2013-08-31 10:47:00,
2013-08-31 06:52:00,72.5,65.6,29.88,South,177,0.0,0.0,79,0.00,CLR,,0.00,WeatherDisplay:10.37,2013-08-31 10:52:00,
2013-08-31 06:57:00,72.5,65.6,29.88,SW,222,0.0,0.0,79,0.00,CLR,,0.00,WeatherDisplay:10.37,2013-08-31 10:57:00,
2013-08-31 07:02:00,72.5,65.6,29.88,WSW,245,0.0,0.0,79,0.00,CLR,,0.00,WeatherDisplay:10.37,2013-08-31 11:02:00,
2013-08-31 07:07:00,72.5,65.6,29.88,SSE,155,0.0,0.0,79,0.00,CLR,,0.00,WeatherDisplay:10.37,2013-08-31 11:07:00,
2013-08-31 07:12:00,72.5,65.6,29.88,SW,222,0.0,0.0,79,0.00,CLR,,0.00,WeatherDisplay:10.37,2013-08-31 11:12:00,
2013-08-31 07:17:00,72.5,65.6,29.88,SW,222,0.0,0.0,79,0.00,CLR,,0.00,WeatherDisplay:10.37,2013-08-31 11:17:00,
2013-08-31 07:22:00,72.7,65.8,29.88,South,177,0.0,0.0,79,0.00,CLR,,0.00,WeatherDisplay:10.37,2013-08-31 11:22:00,
2013-08-31 07:27:00,72.7,65.8,29.88,SW,222,0.0,0.0,79,0.00,CLR,,0.00,WeatherDisplay:10.37,2013-08-31 11:27:00,
2013-08-31 07:32:00,72.7,65.8,29.88,SSW,199,0.0,0.0,79,0.00,CLR,,0.00,WeatherDisplay:10.37,2013-08-31 11:32:00,
2013-08-31 07:37:00,72.7,65.8,29.88,WSW,245,0.0,0.0,79,0.00,CLR,,0.00,WeatherDisplay:10.37,2013-08-31 11:37:00,
2013-08-31 07:42:00,72.7,65.8,29.88,WSW,245,0.0,0.0,79,0.00,CLR,,0.00,WeatherDisplay:10.37,2013-08-31 11:42:00,
2013-08-31 07:47:00,72.9,66.3,29.88,SSE,155,0.0,0.0,80,0.00,CLR,,0.00,WeatherDisplay:10.37,2013-08-31 11:47:00,
2013-08-31 07:52:00,72.9,66.3,29.88,SSW,199,0.0,0.0,80,0.00,CLR,,0.00,WeatherDisplay:10.37,2013-08-31 11:52:00,
2013-08-31 07:57:00,73.0,66.5,29.88,WSW,245,0.0,0.0,80,0.00,CLR,,0.00,WeatherDisplay:10.37,2013-08-31 11:57:00,
2013-08-31 08:02:00,73.2,66.7,29.88,WSW,245,0.0,0.0,80,0.00,CLR,,0.00,WeatherDisplay:10.37,2013-08-31 12:02:00,
2013-08-31 08:07:00,73.4,66.9,29.88,SW,222,0.0,0.0,80,0.00,CLR,,0.00,WeatherDisplay:10.37,2013-08-31 12:07:00,
2013-08-31 08:12:00,73.6,67.0,29.88,SW,222,0.0,0.0,80,0.00,FEW,,0.00,WeatherDisplay:10.37,2013-08-31 12:12:00,
2013-08-31 08:17:00,73.8,67.2,29.88,SW,222,0.0,0.0,80,0.00,FEW,,0.00,WeatherDisplay:10.37,2013-08-31 12:17:00,
2013-08-31 08:22:00,74.1,67.6,29.88,SSW,199,0.0,0.0,80,0.00,FEW,,0.00,WeatherDisplay:10.37,2013-08-31 12:22:00,
2013-08-31 08:27:00,74.5,67.9,29.88,SW,222,0.0,0.0,80,0.00,FEW,,0.00,WeatherDisplay:10.37,2013-08-31 12:27:00,
2013-08-31 08:32:00,74.5,67.9,29.88,South,177,0.0,0.0,80,0.00,FEW,,0.00,WeatherDisplay:10.37,2013-08-31 12:32:00,
2013-08-31 08:37:00,75.0,68.4,29.88,SSW,199,0.0,0.0,80,0.00,FEW,,0.00,WeatherDisplay:10.37,2013-08-31 12:37:00,
2013-08-31 08:42:00,75.6,69.0,29.88,South,177,0.0,0.0,80,0.00,FEW,,0.00,WeatherDisplay:10.37,2013-08-31 12:42:00,
2013-08-31 08:47:00,75.7,69.1,29.88,SW,222,0.0,0.0,80,0.00,FEW,,0.00,WeatherDisplay:10.37,2013-08-31 12:47:00,
2013-08-31 08:52:00,76.3,68.9,29.88,SSW,199,0.0,0.0,78,0.00,FEW,,0.00,WeatherDisplay:10.37,2013-08-31 12:52:00,
2013-08-31 08:57:00,76.8,69.8,29.88,SW,222,0.0,0.0,79,0.00,FEW,,0.00,WeatherDisplay:10.37,2013-08-31 12:57:00,
2013-08-31 09:02:00,77.2,70.2,29.88,SSW,199,0.0,0.0,79,0.00,FEW,,0.00,WeatherDisplay:10.37,2013-08-31 13:02:00,
2013-08-31 09:07:00,77.2,69.8,29.88,West,267,0.0,0.0,78,0.00,FEW,,0.00,WeatherDisplay:10.37,2013-08-31 13:07:00,
2013-08-31 09:12:00,79.3,71.5,29.89,West,267,0.0,0.0,77,0.00,CLR,,0.00,WeatherDisplay:10.37,2013-08-31 13:12:00,
2013-08-31 09:17:00,80.2,72.4,29.89,SE,132,0.0,0.0,77,0.00,CLR,,0.00,WeatherDisplay:10.37,2013-08-31 13:17:00,
2013-08-31 09:22:00,81.5,73.2,29.89,West,267,0.0,0.0,76,0.00,CLR,,0.00,WeatherDisplay:10.37,2013-08-31 13:22:00,
2013-08-31 09:27:00,82.2,73.5,29.89,WSW,245,0.0,0.0,75,0.00,CLR,,0.00,WeatherDisplay:10.37,2013-08-31 13:27:00,
2013-08-31 09:32:00,82.6,73.0,29.89,WSW,245,0.0,0.0,73,0.00,CLR,,0.00,WeatherDisplay:10.37,2013-08-31 13:32:00,
2013-08-31 09:37:00,82.6,73.0,29.89,SW,222,0.0,0.0,73,0.00,CLR,,0.00,WeatherDisplay:10.37,2013-08-31 13:37:00,
2013-08-31 09:42:00,82.6,72.6,29.89,WSW,245,0.0,0.0,72,0.00,CLR,,0.00,WeatherDisplay:10.37,2013-08-31 13:42:00,
2013-08-31 09:47:00,82.6,72.6,29.88,SSE,155,0.0,0.0,72,0.00,CLR,,0.00,WeatherDisplay:10.37,2013-08-31 13:47:00,
2013-08-31 09:52:00,82.9,73.0,29.88,SSE,155,0.0,0.0,72,0.00,CLR,,0.00,WeatherDisplay:10.37,2013-08-31 13:52:00,
2013-08-31 09:57:00,83.3,73.3,29.89,South,177,0.0,0.0,72,0.00,CLR,,0.00,WeatherDisplay:10.37,2013-08-31 13:57:00,
2013-08-31 10:02:00,83.5,73.5,29.89,West,267,0.0,0.0,72,0.00,CLR,,0.00,WeatherDisplay:10.37,2013-08-31 14:02:00,
2013-08-31 10:07:00,85.3,75.2,29.89,South,177,0.0,0.0,72,0.00,CLR,,0.00,WeatherDisplay:10.37,2013-08-31 14:07:00,
2013-08-31 10:12:00,86.0,75.1,29.89,WSW,245,0.0,0.0,70,0.00,CLR,,0.00,WeatherDisplay:10.37,2013-08-31 14:12:00,
2013-08-31 10:17:00,86.0,74.6,29.89,NNW,335,0.0,0.0,69,0.00,CLR,,0.00,WeatherDisplay:10.37,2013-08-31 14:17:00,
2013-08-31 10:22:00,87.4,76.0,29.89,SSW,199,0.0,0.0,69,0.00,CLR,,0.00,WeatherDisplay:10.37,2013-08-31 14:22:00,
2013-08-31 10:27:00,88.3,76.4,29.89,SSW,199,0.0,0.0,68,0.00,CLR,,0.00,WeatherDisplay:10.37,2013-08-31 14:27:00,
2013-08-31 10:32:00,89.2,76.4,29.89,WSW,245,0.0,0.0,66,0.00,CLR,,0.00,WeatherDisplay:10.37,2013-08-31 14:32:00,
2013-08-31 10:37:00,89.8,76.4,29.89,SE,132,0.0,0.0,65,0.00,CLR,,0.00,WeatherDisplay:10.37,2013-08-31 14:37:00,
2013-08-31 10:42:00,90.5,77.1,29.89,SSW,199,0.0,0.0,65,0.00,CLR,,0.00,WeatherDisplay:10.37,2013-08-31 14:42:00,
2013-08-31 10:47:00,91.4,77.0,29.90,West,267,0.0,0.0,63,0.00,CLR,,0.00,WeatherDisplay:10.37,2013-08-31 14:47:00,
2013-08-31 10:52:00,90.9,75.5,29.89,SW,222,0.0,0.0,61,0.00,CLR,,0.00,WeatherDisplay:10.37,2013-08-31 14:52:00,
2013-08-31 10:57:00,90.1,75.4,29.89,WNW,289,0.0,0.0,62,0.00,CLR,,0.00,WeatherDisplay:10.37,2013-08-31 14:57:00,
2013-08-31 11:02:00,90.3,76.5,29.89,West,267,0.0,0.0,64,0.00,CLR,,0.00,WeatherDisplay:10.37,2013-08-31 15:02:00,
2013-08-31 11:07:00,91.2,77.3,29.89,WSW,245,0.0,0.0,64,0.00,CLR,,0.00,WeatherDisplay:10.37,2013-08-31 15:07:00,
2013-08-31 11:12:00,91.9,77.1,29.89,West,267,0.0,0.0,62,0.00,FEW,,0.00,WeatherDisplay:10.37,2013-08-31 15:12:00,
2013-08-31 11:17:00,91.9,77.1,29.89,SW,222,0.0,0.0,62,0.00,FEW,,0.00,WeatherDisplay:10.37,2013-08-31 15:17:00,
2013-08-31 11:22:00,91.8,75.9,29.89,West,267,0.0,0.0,60,0.00,FEW,,0.00,WeatherDisplay:10.37,2013-08-31 15:22:00,
2013-08-31 11:27:00,91.8,77.4,29.89,SW,222,0.0,0.0,63,0.00,FEW,,0.00,WeatherDisplay:10.37,2013-08-31 15:27:00,
2013-08-31 11:32:00,92.5,77.1,29.89,West,267,0.0,0.0,61,0.00,FEW,,0.00,WeatherDisplay:10.37,2013-08-31 15:32:00,
2013-08-31 11:37:00,92.5,76.6,29.89,WSW,245,0.0,0.0,60,0.00,FEW,,0.00,WeatherDisplay:10.37,2013-08-31 15:37:00,
2013-08-31 11:42:00,92.7,76.7,29.89,WSW,245,0.0,0.0,60,0.00,FEW,,0.00,WeatherDisplay:10.37,2013-08-31 15:42:00,
2013-08-31 11:47:00,93.2,77.7,29.88,SSW,199,0.0,0.0,61,0.00,FEW,,0.00,WeatherDisplay:10.37,2013-08-31 15:47:00,
2013-08-31 11:52:00,94.6,78.6,29.88,WSW,245,0.0,0.0,60,0.00,FEW,,0.00,WeatherDisplay:10.37,2013-08-31 15:52:00,
2013-08-31 11:57:00,95.4,77.7,29.88,West,267,0.0,0.0,57,0.00,FEW,,0.00,WeatherDisplay:10.37,2013-08-31 15:57:00,
2013-08-31 12:02:00,95.7,77.5,29.88,SSE,155,0.0,0.0,56,0.00,FEW,,0.00,WeatherDisplay:10.37,2013-08-31 16:02:00,
2013-08-31 12:07:00,96.1,77.8,29.88,WNW,289,0.0,0.0,56,0.00,FEW,,0.00,WeatherDisplay:10.37,2013-08-31 16:07:00,
2013-08-31 12:12:00,95.5,76.2,29.88,SSW,199,0.0,0.0,54,0.00,CLR,,0.00,WeatherDisplay:10.37,2013-08-31 16:12:00,
2013-08-31 12:17:00,95.5,75.1,29.88,West,267,0.0,0.0,52,0.00,CLR,,0.00,WeatherDisplay:10.37,2013-08-31 16:17:00,
2013-08-31 12:22:00,94.8,74.4,29.88,SW,222,0.0,0.0,52,0.00,CLR,,0.00,WeatherDisplay:10.37,2013-08-31 16:22:00,
2013-08-31 12:27:00,94.8,76.1,29.88,South,177,0.0,0.0,55,0.00,CLR,,0.00,WeatherDisplay:10.37,2013-08-31 16:27:00,
2013-08-31 12:32:00,95.7,77.0,29.88,West,267,0.0,0.0,55,0.00,CLR,,0.00,WeatherDisplay:10.37,2013-08-31 16:32:00,
2013-08-31 12:37:00,97.3,76.8,29.88,West,267,0.0,0.0,52,0.00,CLR,,0.00,WeatherDisplay:10.37,2013-08-31 16:37:00,
2013-08-31 12:42:00,97.0,75.9,29.87,SW,222,0.0,0.0,51,0.00,CLR,,0.00,WeatherDisplay:10.37,2013-08-31 16:42:00,
2013-08-31 12:47:00,96.4,75.9,29.88,West,267,0.0,0.0,52,0.00,CLR,,0.00,WeatherDisplay:10.37,2013-08-31 16:47:00,
2013-08-31 12:52:00,94.6,74.9,29.87,West,267,0.0,0.0,53,0.00,CLR,,0.00,WeatherDisplay:10.37,2013-08-31 16:52:00,
2013-08-31 12:57:00,93.7,74.0,29.87,SSW,199,0.0,0.0,53,0.00,CLR,,0.00,WeatherDisplay:10.37,2013-08-31 16:57:00,
2013-08-31 13:02:00,93.0,73.9,29.87,WNW,289,0.0,0.0,54,0.00,CLR,,0.00,WeatherDisplay:10.37,2013-08-31 17:02:00,
2013-08-31 13:07:00,93.2,75.2,29.87,SW,222,1.0,1.1,56,0.00,CLR,,0.00,WeatherDisplay:10.37,2013-08-31 17:07:00,
2013-08-31 13:12:00,94.1,76.5,29.87,SSW,199,0.0,0.0,57,0.00,CLR,,0.00,WeatherDisplay:10.37,2013-08-31 17:12:00,
2013-08-31 13:17:00,95.5,77.3,29.87,West,267,0.0,0.0,56,0.00,CLR,,0.00,WeatherDisplay:10.37,2013-08-31 17:17:00,
2013-08-31 13:22:00,96.6,77.2,29.87,WSW,245,1.7,2.3,54,0.00,CLR,,0.00,WeatherDisplay:10.37,2013-08-31 17:22:00,
2013-08-31 13:27:00,97.2,77.7,29.87,WSW,245,0.0,0.0,54,0.00,CLR,,0.00,WeatherDisplay:10.37,2013-08-31 17:27:00,
2013-08-31 13:32:00,97.9,77.8,29.87,NW,312,0.0,0.0,53,0.00,CLR,,0.00,WeatherDisplay:10.37,2013-08-31 17:32:00,
2013-08-31 13:37:00,98.6,77.3,29.86,WSW,245,11.2,12.7,51,0.00,CLR,,0.00,WeatherDisplay:10.37,2013-08-31 17:37:00,
2013-08-31 13:42:00,98.4,76.0,29.87,WSW,245,4.8,6.9,49,0.00,CLR,,0.00,WeatherDisplay:10.37,2013-08-31 17:42:00,
2013-08-31 13:47:00,98.4,77.2,29.87,SW,222,5.8,5.8,51,0.00,CLR,,0.00,WeatherDisplay:10.37,2013-08-31 17:47:00,
2013-08-31 13:52:00,97.5,75.8,29.87,WNW,289,4.5,4.6,50,0.00,CLR,,0.00,WeatherDisplay:10.37,2013-08-31 17:52:00,
2013-08-31 13:57:00,96.4,75.9,29.87,West,267,5.9,6.3,52,0.00,CLR,,0.00,WeatherDisplay:10.37,2013-08-31 17:57:00,
2013-08-31 14:02:00,95.4,75.5,29.87,West,267,10.1,10.4,53,0.00,CLR,,0.00,WeatherDisplay:10.37,2013-08-31 18:02:00,
2013-08-31 14:07:00,93.7,75.1,29.86,West,267,6.6,8.1,55,0.00,CLR,,0.00,WeatherDisplay:10.37,2013-08-31 18:07:00,
2013-08-31 14:12:00,93.4,75.3,29.86,WSW,245,2.2,4.6,56,0.00,BKN,,0.00,WeatherDisplay:10.37,2013-08-31 18:12:00,
2013-08-31 14:17:00,92.8,74.8,29.86,West,267,2.5,2.5,56,0.00,BKN,,0.00,WeatherDisplay:10.37,2013-08-31 18:17:00,
2013-08-31 14:22:00,92.1,75.2,29.87,SW,222,2.9,3.5,58,0.00,BKN,,0.00,WeatherDisplay:10.37,2013-08-31 18:22:00,
2013-08-31 14:27:00,91.8,74.9,29.87,NW,312,4.2,6.9,58,0.00,BKN,,0.00,WeatherDisplay:10.37,2013-08-31 18:27:00,
2013-08-31 14:32:00,91.2,74.9,29.86,West,267,2.2,2.3,59,0.00,BKN,,0.00,WeatherDisplay:10.37,2013-08-31 18:32:00,
2013-08-31 14:37:00,89.8,74.0,29.87,NNW,335,1.9,2.2,60,0.00,BKN,,0.00,WeatherDisplay:10.37,2013-08-31 18:37:00,
2013-08-31 14:42:00,88.9,73.7,29.87,WSW,245,0.0,4.6,61,0.00,BKN,,0.00,WeatherDisplay:10.37,2013-08-31 18:42:00,
2013-08-31 14:47:00,88.2,73.0,29.87,West,267,1.3,1.3,61,0.00,BKN,,0.00,WeatherDisplay:10.37,2013-08-31 18:47:00,
2013-08-31 14:52:00,87.3,73.1,29.87,WSW,245,3.9,3.9,63,0.00,BKN,,0.00,WeatherDisplay:10.37,2013-08-31 18:52:00,
2013-08-31 14:57:00,86.7,73.1,29.87,WNW,289,1.9,3.5,64,0.00,BKN,,0.00,WeatherDisplay:10.37,2013-08-31 18:57:00,
2013-08-31 15:02:00,86.4,73.7,29.86,NNW,335,5.6,5.8,66,0.00,BKN,,0.00,WeatherDisplay:10.37,2013-08-31 19:02:00,
2013-08-31 15:07:00,85.6,72.5,29.85,West,267,0.0,1.1,65,0.00,BKN,,0.00,WeatherDisplay:10.37,2013-08-31 19:07:00,
2013-08-31 15:12:00,85.3,71.7,29.84,NW,312,3.6,3.6,64,0.00,-RA,,0.00,WeatherDisplay:10.37,2013-08-31 19:12:00,
2013-08-31 15:17:00,84.9,70.4,29.84,NW,312,1.6,1.6,62,0.00,-RA,,0.00,WeatherDisplay:10.37,2013-08-31 19:17:00,
2013-08-31 15:22:00,84.9,70.4,29.84,NW,312,2.7,2.7,62,0.00,-RA,,0.00,WeatherDisplay:10.37,2013-08-31 19:22:00,
2013-08-31 15:27:00,84.6,69.6,29.84,NW,312,4.5,4.6,61,0.00,-RA,,0.00,WeatherDisplay:10.37,2013-08-31 19:27:00,
2013-08-31 15:32:00,84.4,69.5,29.84,NW,312,3.8,3.8,61,0.00,-RA,,0.00,WeatherDisplay:10.37,2013-08-31 19:32:00,
2013-08-31 15:37:00,84.0,69.6,29.83,NNW,335,2.9,3.5,62,0.00,-RA,,0.00,WeatherDisplay:10.37,2013-08-31 19:37:00,
2013-08-31 15:42:00,84.0,69.6,29.83,NNW,335,0.6,3.5,62,0.00,-RA,,0.00,WeatherDisplay:10.37,2013-08-31 19:42:00,
2013-08-31 15:47:00,84.0,69.6,29.83,North,357,0.0,0.0,62,0.00,-RA,,0.00,WeatherDisplay:10.37,2013-08-31 19:47:00,
2013-08-31 15:52:00,84.4,69.9,29.83,NE,42,0.0,0.0,62,0.00,-RA,,0.00,WeatherDisplay:10.37,2013-08-31 19:52:00,
2013-08-31 15:57:00,84.6,70.1,29.83,NW,312,0.5,1.1,62,0.00,-RA,,0.00,WeatherDisplay:10.37,2013-08-31 19:57:00,
2013-08-31 16:02:00,85.1,71.5,29.82,South,177,0.0,0.0,64,0.00,-RA,,0.00,WeatherDisplay:10.37,2013-08-31 20:02:00,
2013-08-31 16:07:00,86.2,70.7,29.82,NNW,335,0.0,0.0,60,0.00,-RA,,0.00,WeatherDisplay:10.37,2013-08-31 20:07:00,
2013-08-31 16:12:00,87.1,71.5,29.81,SSE,155,0.0,0.0,60,0.00,SCT,,0.00,WeatherDisplay:10.37,2013-08-31 20:12:00,
2013-08-31 16:17:00,88.0,72.4,29.81,WSW,245,0.0,0.0,60,0.00,SCT,,0.00,WeatherDisplay:10.37,2013-08-31 20:17:00,
2013-08-31 16:22:00,88.3,72.7,29.81,South,177,1.3,2.5,60,0.00,SCT,,0.00,WeatherDisplay:10.37,2013-08-31 20:22:00,
2013-08-31 16:27:00,88.3,73.2,29.81,SW,222,1.3,1.3,61,0.00,SCT,,0.00,WeatherDisplay:10.37,2013-08-31 20:27:00,
2013-08-31 16:32:00,88.5,73.3,29.80,WSW,245,0.0,0.0,61,0.00,SCT,,0.00,WeatherDisplay:10.37,2013-08-31 20:32:00,
2013-08-31 16:37:00,88.7,73.5,29.80,SSE,155,0.5,0.9,61,0.00,SCT,,0.00,WeatherDisplay:10.37,2013-08-31 20:37:00,
2013-08-31 16:42:00,89.1,73.9,29.80,SSE,155,0.1,3.5,61,0.00,SCT,,0.00,WeatherDisplay:10.37,2013-08-31 20:42:00,
2013-08-31 16:47:00,89.4,74.2,29.81,SSW,199,2.5,4.6,61,0.00,SCT,,0.00,WeatherDisplay:10.37,2013-08-31 20:47:00,
2013-08-31 16:52:00,89.8,73.5,29.81,South,177,2.0,3.5,59,0.00,SCT,,0.00,WeatherDisplay:10.37,2013-08-31 20:52:00,
2013-08-31 16:57:00,89.8,73.5,29.81,South,177,1.3,2.3,59,0.00,SCT,,0.00,WeatherDisplay:10.37,2013-08-31 20:57:00,
2013-08-31 17:02:00,89.8,73.5,29.81,West,267,0.0,0.0,59,0.00,SCT,,0.00,WeatherDisplay:10.37,2013-08-31 21:02:00,
2013-08-31 17:07:00,89.4,73.2,29.80,South,177,0.0,0.0,59,0.00,SCT,,0.00,WeatherDisplay:10.37,2013-08-31 21:07:00,
2013-08-31 17:12:00,89.2,73.5,29.79,SSW,199,1.5,2.3,60,0.00,CLR,,0.00,WeatherDisplay:10.37,2013-08-31 21:12:00,
2013-08-31 17:17:00,89.2,73.5,29.79,WSW,245,1.8,2.3,60,0.00,CLR,,0.00,WeatherDisplay:10.37,2013-08-31 21:17:00,
2013-08-31 17:22:00,89.2,74.0,29.79,South,177,0.7,2.3,61,0.00,CLR,,0.00,WeatherDisplay:10.37,2013-08-31 21:22:00,
2013-08-31 17:27:00,89.4,73.7,29.79,WSW,245,2.0,3.5,60,0.00,CLR,,0.00,WeatherDisplay:10.37,2013-08-31 21:27:00,
2013-08-31 17:32:00,89.8,74.0,29.78,South,177,3.1,3.5,60,0.00,CLR,,0.00,WeatherDisplay:10.37,2013-08-31 21:32:00,
2013-08-31 17:37:00,90.1,74.4,29.78,WSW,245,1.5,3.5,60,0.00,CLR,,0.00,WeatherDisplay:10.37,2013-08-31 21:37:00,
2013-08-31 17:42:00,90.3,74.5,29.78,West,267,1.1,2.3,60,0.00,CLR,,0.00,WeatherDisplay:10.37,2013-08-31 21:42:00,
2013-08-31 17:47:00,90.5,74.7,29.78,WSW,245,7.2,7.2,60,0.00,CLR,,0.00,WeatherDisplay:10.37,2013-08-31 21:47:00,
2013-08-31 17:52:00,90.7,74.9,29.78,WSW,245,2.1,2.3,60,0.00,CLR,,0.00,WeatherDisplay:10.37,2013-08-31 21:52:00,
2013-08-31 17:57:00,91.0,75.2,29.79,SSW,199,5.8,6.3,60,0.00,CLR,,0.00,WeatherDisplay:10.37,2013-08-31 21:57:00,
2013-08-31 18:02:00,91.2,74.9,29.79,South,177,2.7,2.7,59,0.00,CLR,,0.00,WeatherDisplay:10.37,2013-08-31 22:02:00,
2013-08-31 18:07:00,91.2,74.9,29.79,SSW,199,1.1,1.1,59,0.00,CLR,,0.00,WeatherDisplay:10.37,2013-08-31 22:07:00,
2013-08-31 18:12:00,91.4,75.1,29.79,South,177,2.0,3.5,59,0.00,CLR,,0.00,WeatherDisplay:10.37,2013-08-31 22:12:00,
2013-08-31 18:17:00,91.4,75.1,29.79,SSW,199,1.6,1.6,59,0.00,CLR,,0.00,WeatherDisplay:10.37,2013-08-31 22:17:00,
2013-08-31 18:22:00,91.2,74.4,29.80,South,177,3.4,3.5,58,0.00,CLR,,0.00,WeatherDisplay:10.37,2013-08-31 22:22:00,
2013-08-31 18:27:00,90.7,73.9,29.79,South,177,0.9,2.3,58,0.00,CLR,,0.00,WeatherDisplay:10.37,2013-08-31 22:27:00,
2013-08-31 18:32:00,90.3,74.0,29.80,NNE,19,0.9,1.1,59,0.00,CLR,,0.00,WeatherDisplay:10.37,2013-08-31 22:32:00,
2013-08-31 18:37:00,90.0,73.7,29.80,ESE,109,0.0,0.0,59,0.00,CLR,,0.00,WeatherDisplay:10.37,2013-08-31 22:37:00,
2013-08-31 18:42:00,89.6,73.4,29.80,SE,132,0.0,0.0,59,0.00,CLR,,0.00,WeatherDisplay:10.37,2013-08-31 22:42:00,
2013-08-31 18:47:00,89.4,73.2,29.80,SE,132,2.9,3.5,59,0.00,CLR,,0.00,WeatherDisplay:10.37,2013-08-31 22:47:00,
2013-08-31 18:52:00,89.2,73.5,29.80,SW,222,1.4,1.4,60,0.00,CLR,,0.00,WeatherDisplay:10.37,2013-08-31 22:52:00,
2013-08-31 18:57:00,89.2,73.5,29.80,SSW,199,5.1,5.1,60,0.00,CLR,,0.00,WeatherDisplay:10.37,2013-08-31 22:57:00,
2013-08-31 19:03:00,89.4,74.2,29.80,SW,222,1.8,2.3,61,0.00,CLR,,0.00,WeatherDisplay:10.37,2013-08-31 23:03:00,
2013-08-31 19:08:00,89.2,74.0,29.80,SSE,155,2.3,2.9,61,0.00,CLR,,0.00,WeatherDisplay:10.37,2013-08-31 23:08:00,
2013-08-31 19:13:00,89.2,74.0,29.80,SW,222,1.8,2.3,61,0.00,CLR,,0.00,WeatherDisplay:10.37,2013-08-31 23:13:00,
2013-08-31 19:18:00,88.9,73.7,29.80,SW,222,1.1,1.1,61,0.00,CLR,,0.00,WeatherDisplay:10.37,2013-08-31 23:18:00,
2013-08-31 19:23:00,88.7,73.5,29.80,SSW,199,2.0,2.3,61,0.00,CLR,,0.00,WeatherDisplay:10.37,2013-08-31 23:23:00,
2013-08-31 19:28:00,88.5,73.8,29.79,SW,222,0.0,8.1,62,0.00,CLR,,0.00,WeatherDisplay:10.37,2013-08-31 23:28:00,
2013-08-31 19:33:00,88.2,73.5,29.79,SSW,199,0.0,0.0,62,0.00,CLR,,0.00,WeatherDisplay:10.37,2013-08-31 23:33:00,
2013-08-31 19:38:00,87.8,73.2,29.79,SW,222,0.0,0.0,62,0.00,CLR,,0.00,WeatherDisplay:10.37,2013-08-31 23:38:00,
2013-08-31 19:43:00,87.4,73.3,29.79,SSE,155,0.0,1.1,63,0.00,CLR,,0.00,WeatherDisplay:10.37,2013-08-31 23:43:00,
2013-08-31 19:48:00,86.7,72.6,29.80,SE,132,1.6,1.6,63,0.00,CLR,,0.00,WeatherDisplay:10.37,2013-08-31 23:48:00,
2013-08-31 19:53:00,86.2,73.0,29.80,ESE,109,0.0,0.0,65,0.00,CLR,,0.00,WeatherDisplay:10.37,2013-08-31 23:53:00,
2013-08-31 19:58:00,85.8,73.1,29.80,South,177,2.2,2.3,66,0.00,CLR,,0.00,WeatherDisplay:10.37,2013-08-31 23:58:00,
2013-08-31 20:03:00,85.3,73.1,29.80,SSE,155,2.5,2.5,67,0.00,CLR,,0.00,WeatherDisplay:10.37,2013-09-01 00:03:00,
2013-08-31 20:08:00,84.9,72.7,29.80,WSW,245,2.4,2.4,67,0.00,CLR,,0.00,WeatherDisplay:10.37,2013-09-01 00:08:00,
2013-08-31 20:13:00,84.7,72.6,29.81,SSW,199,0.0,1.1,67,0.00,BKN,,0.00,WeatherDisplay:10.37,2013-09-01 00:13:00,
2013-08-31 20:18:00,84.6,72.4,29.80,SE,132,1.6,1.6,67,0.00,BKN,,0.00,WeatherDisplay:10.37,2013-09-01 00:18:00,
2013-08-31 20:23:00,84.4,73.1,29.79,ESE,109,3.8,3.8,69,0.00,BKN,,0.00,WeatherDisplay:10.37,2013-09-01 00:23:00,
2013-08-31 20:28:00,83.8,73.0,29.80,South,177,1.6,3.5,70,0.00,BKN,,0.00,WeatherDisplay:10.37,2013-09-01 00:28:00,
2013-08-31 20:33:00,83.1,72.7,29.81,NW,312,0.1,2.0,71,0.04,RA,,0.04,WeatherDisplay:10.37,2013-09-01 00:33:00,
2013-08-31 20:38:00,82.2,73.1,29.80,NNW,335,1.3,3.5,74,0.04,RA,,0.04,WeatherDisplay:10.37,2013-09-01 00:38:00,
2013-08-31 20:43:00,81.5,72.8,29.80,NNW,335,0.0,3.5,75,0.04,BKN,,0.04,WeatherDisplay:10.37,2013-09-01 00:43:00,
2013-08-31 20:48:00,81.1,72.9,29.80,SE,132,0.0,0.0,76,0.04,BKN,,0.04,WeatherDisplay:10.37,2013-09-01 00:48:00,
2013-08-31 20:53:00,81.0,73.1,29.80,ESE,109,0.0,0.0,77,0.04,BKN,,0.04,WeatherDisplay:10.37,2013-09-01 00:53:00,
2013-08-31 20:58:00,80.8,73.3,29.80,ESE,109,0.0,0.0,78,0.04,BKN,,0.04,WeatherDisplay:10.37,2013-09-01 00:58:00,
2013-08-31 21:03:00,80.4,72.9,29.81,ENE,65,0.0,0.0,78,0.04,BKN,,0.04,WeatherDisplay:10.37,2013-09-01 01:03:00,
2013-08-31 21:08:00,79.9,73.2,29.83,North,357,1.3,2.3,80,0.04,BKN,,0.04,WeatherDisplay:10.37,2013-09-01 01:08:00,
2013-08-31 21:13:00,79.5,73.2,29.86,North,357,10.5,10.5,81,0.04,OVC,,0.04,WeatherDisplay:10.37,2013-09-01 01:13:00,
2013-08-31 21:18:00,77.5,69.4,29.88,NE,42,8.3,8.3,76,0.04,OVC,,0.04,WeatherDisplay:10.37,2013-09-01 01:18:00,
2013-08-31 21:23:00,75.9,67.4,29.88,NNE,19,7.5,12.7,75,0.04,OVC,,0.04,WeatherDisplay:10.37,2013-09-01 01:23:00,
2013-08-31 21:28:00,75.0,66.9,29.86,NE,42,4.0,4.6,76,0.04,OVC,,0.04,WeatherDisplay:10.37,2013-09-01 01:28:00,
2013-08-31 21:33:00,74.3,67.0,29.87,SSW,199,4.0,4.0,78,0.00,OVC,,0.04,WeatherDisplay:10.37,2013-09-01 01:33:00,
2013-08-31 21:38:00,73.2,66.3,29.87,East,87,1.5,3.5,79,0.00,OVC,,0.04,WeatherDisplay:10.37,2013-09-01 01:38:00,
2013-08-31 21:43:00,72.7,65.8,29.86,North,357,2.9,3.5,79,0.00,OVC,,0.04,WeatherDisplay:10.37,2013-09-01 01:43:00,
2013-08-31 21:48:00,72.1,66.0,29.87,ENE,65,3.6,3.6,81,0.00,OVC,,0.04,WeatherDisplay:10.37,2013-09-01 01:48:00,
2013-08-31 21:53:00,71.4,65.6,29.87,East,87,4.6,4.6,82,0.00,OVC,,0.04,WeatherDisplay:10.37,2013-09-01 01:53:00,
2013-08-31 21:58:00,70.7,65.3,29.88,SE,132,4.2,4.6,83,0.00,OVC,,0.04,WeatherDisplay:10.37,2013-09-01 01:58:00,
2013-08-31 22:03:00,70.5,65.1,29.90,NE,42,4.5,4.6,83,0.00,OVC,,0.04,WeatherDisplay:10.37,2013-09-01 02:03:00,
2013-08-31 22:08:00,70.5,65.1,29.92,East,87,5.1,5.1,83,0.00,OVC,,0.04,WeatherDisplay:10.37,2013-09-01 02:08:00,
2013-08-31 22:13:00,70.3,64.9,29.93,SSE,155,2.5,4.6,83,0.00,OVC,,0.06,WeatherDisplay:10.37,2013-09-01 02:13:00,
2013-08-31 22:18:00,70.0,64.9,29.91,ENE,65,10.4,13.8,84,0.75,RA,,0.79,WeatherDisplay:10.37,2013-09-01 02:18:00,
2013-08-31 22:23:00,69.4,64.4,29.92,NE,42,6.3,9.2,84,1.19,RA,,1.23,WeatherDisplay:10.37,2013-09-01 02:23:00,
2013-08-31 22:28:00,69.3,64.6,29.91,ESE,109,5.8,13.8,85,1.27,RA,,1.31,WeatherDisplay:10.37,2013-09-01 02:28:00,
2013-08-31 22:33:00,68.9,64.5,29.90,NE,42,9.8,10.4,86,1.76,RA,,1.80,WeatherDisplay:10.37,2013-09-01 02:33:00,
2013-08-31 22:38:00,68.7,64.4,29.90,NNE,19,6.3,9.2,86,1.82,RA,,1.86,WeatherDisplay:10.37,2013-09-01 02:38:00,
2013-08-31 22:43:00,68.7,64.4,29.89,North,357,2.2,8.1,86,1.86,RA,,1.90,WeatherDisplay:10.37,2013-09-01 02:43:00,
2013-08-31 22:48:00,68.5,64.5,29.89,ESE,109,4.8,4.8,87,1.86,RA,,1.90,WeatherDisplay:10.37,2013-09-01 02:48:00,
2013-08-31 22:53:00,68.5,64.5,29.91,South,177,1.2,1.2,87,1.86,OVC,,1.90,WeatherDisplay:10.37,2013-09-01 02:53:00,
2013-08-31 22:58:00,68.5,64.5,29.91,ENE,65,7.8,8.1,87,1.86,OVC,,1.90,WeatherDisplay:10.37,2013-09-01 02:58:00,
2013-08-31 23:03:00,68.5,64.5,29.90,ENE,65,3.6,3.6,87,1.90,RA,,1.94,WeatherDisplay:10.37,2013-09-01 03:03:00,
2013-08-31 23:08:00,68.5,64.5,29.89,NW,312,1.4,4.6,87,1.96,-RA,,2.00,WeatherDisplay:10.37,2013-09-01 03:08:00,
2013-08-31 23:13:00,68.5,64.5,29.89,ENE,65,2.0,3.5,87,1.94,-RA,,2.00,WeatherDisplay:10.37,2013-09-01 03:13:00,
2013-08-31 23:18:00,68.5,64.5,29.88,East,87,1.1,3.5,87,1.21,-RA,,2.00,WeatherDisplay:10.37,2013-09-01 03:18:00,
2013-08-31 23:23:00,68.5,64.5,29.87,East,87,4.7,4.7,87,0.77,-RA,,2.00,WeatherDisplay:10.37,2013-09-01 03:23:00,
2013-08-31 23:28:00,68.5,64.8,29.87,NNE,19,0.9,8.1,88,0.68,-RA,,2.00,WeatherDisplay:10.37,2013-09-01 03:28:00,
2013-08-31 23:33:00,68.5,64.8,29.90,WSW,245,4.0,4.0,88,0.20,-RA,,2.00,WeatherDisplay:10.37,2013-09-01 03:33:00,
2013-08-31 23:38:00,68.5,64.8,29.91,ESE,109,1.9,4.6,88,0.22,-RA,,2.08,WeatherDisplay:10.37,2013-09-01 03:38:00,
2013-08-31 23:43:00,68.5,64.5,29.88,ESE,109,0.0,3.5,87,0.22,-RA,,2.12,WeatherDisplay:10.37,2013-09-01 03:43:00,
2013-08-31 23:48:00,68.5,64.8,29.88,NNW,335,0.7,8.1,88,0.26,-RA,,2.16,WeatherDisplay:10.37,2013-09-01 03:48:00,
2013-08-31 23:53:00,68.5,64.5,29.87,NNE,19,0.0,0.0,87,0.35,-RA,,2.24,WeatherDisplay:10.37,2013-09-01 03:53:00,
2013-08-31 23:58:00,68.5,64.8,29.88,NE,42,1.6,2.3,88,0.35,-RA,,2.24,WeatherDisplay:10.37,2013-09-01 03:58:00,